Weather History for Sparta, IL

Change the Weather History Date:

Sunday, March 10, 2013

  Actual Average (KBLV) Record (KBLV)
Temperature  
Mean Temperature 55 °F -  
Max Temperature 62 °F 55 °F 83 °F (1990)
Min Temperature 48 °F 32 °F 15 °F (1969)
Degree Days  
Heating Degree Days 10    
Growing Degree Days 5 (Base 50)    
Moisture  
Dew Point 46 °F    
Average Humidity 72    
Maximum Humidity 94    
Minimum Humidity 34    
Precipitation  
Precipitation 0.43 in - - ()
Sea Level Pressure  
Sea Level Pressure 29.76 in    
Wind  
Wind Speed 14 mph (South)    
Max Wind Speed 25 mph    
Max Gust Speed 33 mph    
Visibility 10 miles    
Events Rain , Thunderstorm    
Averages and records for this station are not official NWS values.
T = Trace of Precipitation, MM = Missing Value Source: NWS Daily Summary

Daily Weather History Graph

Daily Weather History Graph

Search for Another Location

Airport:

Trip Planner

Search our weather history database for the weather conditions in past years. The results will help you decide how hot, cold, wet, or windy it might be!

Date:

Astronomy

Mar. 10, 2013 Rise Set
Actual Time 7:17 AM CDT 7:01 PM CDT
Civil Twilight 6:50 AM CDT 7:27 PM CDT
Nautical Twilight 6:20 AM CDT 7:58 PM CDT
Astronomical Twilight 5:49 AM CDT 8:29 PM CDT
Moon 6:16 AM CDT (3/10) 6:09 PM CDT (3/10)
Length of Visible Light 12h 36m
Length of Day
11h 44m
Waning Crescent, 2% of the Moon is Illuminated
Mar 10
Waning Crescent
Mar 11
New
Mar 19
First Quarter
Mar 27
Full
Apr 2
Last Quarter

Hourly Weather History & Observations

Time (CDT) Temp. Dew Point Humidity Pressure Visibility Wind Dir Wind Speed Gust Speed Precip Events Conditions
12:15 AM 60.8 °F 33.8 °F 36% 29.84 in 10.0 mi SSE 15.0 mph 18.4 mph N/A   Clear
12:35 AM 62.6 °F 33.8 °F 34% 29.84 in 10.0 mi South 17.3 mph 24.2 mph N/A   Clear
12:55 AM 62.6 °F 33.8 °F 34% 29.83 in 10.0 mi South 16.1 mph 27.6 mph N/A   Scattered Clouds
1:15 AM 62.6 °F 33.8 °F 34% 29.83 in 10.0 mi South 12.7 mph 23.0 mph N/A   Scattered Clouds
1:35 AM 62.6 °F 33.8 °F 34% 29.81 in 10.0 mi South 18.4 mph 27.6 mph N/A   Mostly Cloudy
1:55 AM 62.6 °F 33.8 °F 34% 29.80 in 10.0 mi South 19.6 mph 27.6 mph N/A   Scattered Clouds
3:15 AM 60.8 °F 35.6 °F 39% 29.80 in 10.0 mi South 18.4 mph 26.5 mph N/A Thunderstorm Scattered Clouds
3:35 AM 60.8 °F 35.6 °F 39% 29.79 in 10.0 mi South 16.1 mph 25.3 mph N/A   Mostly Cloudy
3:55 AM 60.8 °F 35.6 °F 39% 29.79 in 10.0 mi South 25.3 mph 33.4 mph N/A   Scattered Clouds
4:15 AM 60.8 °F 39.2 °F 45% 29.81 in 10.0 mi South 15.0 mph 27.6 mph N/A Rain Light Rain
4:35 AM 60.8 °F 39.2 °F 45% 29.81 in 10.0 mi South 15.0 mph 29.9 mph N/A   Mostly Cloudy
4:55 AM 59.0 °F 39.2 °F 48% 29.81 in 10.0 mi South 18.4 mph 25.3 mph N/A   Scattered Clouds
5:15 AM 59.0 °F 41.0 °F 51% 29.81 in 10.0 mi South 17.3 mph 26.5 mph N/A   Mostly Cloudy
5:35 AM 60.8 °F 42.8 °F 52% 29.81 in 10.0 mi South 20.7 mph 29.9 mph N/A   Overcast
5:55 AM 60.8 °F 44.6 °F 55% 29.80 in 10.0 mi South 17.3 mph 28.8 mph N/A   Overcast
6:15 AM 60.8 °F 44.6 °F 55% 29.80 in 10.0 mi South 19.6 mph 23.0 mph N/A   Overcast
6:35 AM 60.8 °F 44.6 °F 55% 29.80 in 10.0 mi South 19.6 mph 27.6 mph N/A   Overcast
6:55 AM 60.8 °F 46.4 °F 59% 29.81 in 10.0 mi South 15.0 mph 21.9 mph N/A   Overcast
7:15 AM 60.8 °F 46.4 °F 59% 29.81 in 10.0 mi South 15.0 mph 19.6 mph N/A   Overcast
7:35 AM 60.8 °F 48.2 °F 63% 29.80 in 10.0 mi South 13.8 mph - N/A   Overcast
7:55 AM 60.8 °F 48.2 °F 63% 29.81 in 10.0 mi South 12.7 mph 19.6 mph N/A   Overcast
8:15 AM 60.8 °F 48.2 °F 63% 29.80 in 10.0 mi SSE 15.0 mph 20.7 mph N/A   Overcast
8:35 AM 60.8 °F 48.2 °F 63% 29.79 in 10.0 mi South 17.3 mph 20.7 mph N/A   Overcast
8:55 AM 60.8 °F 50.0 °F 68% 29.77 in 10.0 mi South 12.7 mph 24.2 mph N/A   Overcast
9:15 AM 60.8 °F 50.0 °F 68% 29.77 in 10.0 mi South 19.6 mph 24.2 mph N/A   Overcast
9:35 AM 60.8 °F 50.0 °F 68% 29.77 in 10.0 mi South 16.1 mph 25.3 mph N/A   Overcast
9:55 AM 60.8 °F 51.8 °F 72% 29.75 in 10.0 mi SSE 12.7 mph 23.0 mph N/A   Overcast
10:15 AM 60.8 °F 51.8 °F 72% 29.75 in 10.0 mi SSE 19.6 mph 26.5 mph N/A   Overcast
10:35 AM 62.6 °F 50.0 °F 63% 29.74 in 10.0 mi SSE 19.6 mph 26.5 mph N/A   Overcast
10:55 AM 62.6 °F 50.0 °F 63% 29.76 in 10.0 mi SSE 19.6 mph 24.2 mph N/A   Overcast
11:15 AM 62.6 °F 50.0 °F 63% 29.76 in 10.0 mi South 18.4 mph 25.3 mph N/A   Overcast
11:35 AM 62.6 °F 51.8 °F 68% 29.73 in 10.0 mi SSE 17.3 mph 29.9 mph N/A Rain Light Rain
11:55 AM 62.6 °F 51.8 °F 68% 29.71 in 10.0 mi SSE 19.6 mph 27.6 mph N/A Rain Light Rain
12:15 PM 60.8 °F 53.6 °F 77% 29.70 in 10.0 mi SSE 16.1 mph 23.0 mph N/A Rain Light Rain
12:35 PM 60.8 °F 53.6 °F 77% 29.69 in 10.0 mi SSE 15.0 mph 24.2 mph N/A   Light Drizzle
12:55 PM 60.8 °F 53.6 °F 77% 29.68 in 10.0 mi SSE 13.8 mph 25.3 mph N/A Rain Light Rain
1:15 PM 60.8 °F 53.6 °F 77% 29.68 in 10.0 mi SSE 15.0 mph 25.3 mph N/A Rain Rain
1:35 PM 57.2 °F 53.6 °F 88% 29.68 in 7.0 mi South 17.3 mph 26.5 mph 0.05 in Rain Rain
1:55 PM 55.4 °F 51.8 °F 88% 29.74 in 5.0 mi West 19.6 mph 31.1 mph 0.20 in Rain Heavy Rain
2:15 PM 51.8 °F 50.0 °F 94% 29.74 in 1.0 mi West 15.0 mph 24.2 mph 0.07 in Rain Rain
2:35 PM 51.8 °F 48.2 °F 88% 29.73 in 10.0 mi West 12.7 mph 20.7 mph 0.08 in Rain Rain
2:55 PM 51.8 °F 48.2 °F 88% 29.74 in 10.0 mi WSW 6.9 mph - 0.10 in Rain Light Rain
3:15 PM 51.8 °F 48.2 °F 88% 29.74 in 10.0 mi WSW 4.6 mph - N/A Rain Rain
3:35 PM 51.8 °F 48.2 °F 88% 29.74 in 10.0 mi West 4.6 mph - N/A Rain Light Rain
3:55 PM 51.8 °F 50.0 °F 94% 29.74 in 10.0 mi Calm Calm - 0.02 in Rain Rain
4:15 PM 51.8 °F 48.2 °F 88% 29.75 in 10.0 mi SSW 3.5 mph - 0.03 in Rain Rain
4:35 PM 51.8 °F 48.2 °F 88% 29.74 in 10.0 mi SE 6.9 mph - 0.06 in Rain Rain
4:55 PM 51.8 °F 48.2 °F 88% 29.70 in 10.0 mi ESE 6.9 mph - 0.09 in Rain Rain
5:15 PM 51.8 °F 48.2 °F 88% 29.69 in 10.0 mi SE 9.2 mph - 0.02 in Rain Light Rain
5:35 PM 51.8 °F 48.2 °F 88% 29.70 in 10.0 mi SE 6.9 mph - 0.02 in   Mostly Cloudy
5:55 PM 51.8 °F 48.2 °F 88% 29.70 in 10.0 mi SE 10.4 mph 16.1 mph 0.02 in   Overcast
6:15 PM 51.8 °F 48.2 °F 88% 29.70 in 10.0 mi SSE 8.1 mph - N/A   Overcast
6:35 PM 51.8 °F 48.2 °F 88% 29.73 in 10.0 mi SSW 8.1 mph - N/A   Overcast
6:55 PM 51.8 °F 48.2 °F 88% 29.74 in 10.0 mi SSW 5.8 mph - N/A Rain Light Rain
7:15 PM 51.8 °F 48.2 °F 88% 29.73 in 10.0 mi SSE 8.1 mph - N/A   Overcast
7:35 PM 51.8 °F 48.2 °F 88% 29.74 in 10.0 mi South 6.9 mph - N/A   Overcast
7:55 PM 51.8 °F 48.2 °F 88% 29.73 in 10.0 mi SSE 6.9 mph - N/A   Mostly Cloudy
8:15 PM 50.0 °F 48.2 °F 94% 29.74 in 10.0 mi SSE 4.6 mph - N/A   Scattered Clouds
8:35 PM 50.0 °F 48.2 °F 94% 29.74 in 10.0 mi SSE 5.8 mph - N/A   Scattered Clouds
8:55 PM 50.0 °F 48.2 °F 94% 29.74 in 10.0 mi South 10.4 mph - N/A   Mostly Cloudy
9:15 PM 50.0 °F 48.2 °F 94% 29.74 in 10.0 mi South 10.4 mph - N/A   Scattered Clouds
9:35 PM 50.0 °F 48.2 °F 94% 29.74 in 10.0 mi South 10.4 mph 17.3 mph N/A   Scattered Clouds
9:55 PM 51.8 °F 48.2 °F 88% 29.74 in 10.0 mi South 11.5 mph 17.3 mph N/A   Mostly Cloudy
10:15 PM 51.8 °F 48.2 °F 88% 29.75 in 10.0 mi South 11.5 mph - N/A   Overcast
10:35 PM 51.8 °F 48.2 °F 88% 29.74 in 10.0 mi South 9.2 mph - N/A   Overcast
10:55 PM 51.8 °F 48.2 °F 88% 29.74 in 7.0 mi South 8.1 mph - N/A   Overcast
11:15 PM 51.8 °F 48.2 °F 88% 29.74 in 7.0 mi SSW 9.2 mph - N/A   Overcast
11:35 PM 50.0 °F 46.4 °F 87% 29.75 in 10.0 mi West 9.2 mph 19.6 mph N/A   Overcast
11:55 PM 48.2 °F 46.4 °F 93% 29.75 in 10.0 mi West 9.2 mph - N/A   Overcast
12:15 AM 48.2 °F 46.4 °F 93% 29.75 in 7.0 mi West 9.2 mph - N/A   Overcast
12:35 AM 48.2 °F 44.6 °F 87% 29.75 in 10.0 mi West 6.9 mph - N/A   Overcast
12:55 AM 48.2 °F 44.6 °F 87% 29.75 in 10.0 mi West 8.1 mph - N/A   Overcast